レナード彗星

P/2021 L2 ( Leonard )

English version
Home page
Updated on September 18, 2021

---------------------------------------------------------------------

・ プロフィール

発見日 2021年6月8日
発見光度 20.3等
発見者 G. J. Leonard (Munt Lemmon Survey)

・ 写真集

・ 軌道要素

Epoch 2021 July 5.0 TT = JDT 2459400.5
T 2021 July 24.54426 TT                                 Rudenko
q   1.9385820            (2000.0)            P               Q
n   0.12075763     Peri.   51.53604     +0.69337989     +0.62482952
a   4.0537753      Node   266.67822     -0.72055059     +0.59737205
e   0.5217835      Incl.   21.07001     -0.00558441     +0.50272726
P   8.16
From 96 observations 2021 May 11-Aug. 11, mean residual 0".6.

・ 光度変化

        m1 = 13.0 + 5 logΔ + 20.0 log r(t - 50)

---------------------------------------------------------------------

軌道要素はM.P.E.C. 2021-R75に掲載されたものです。
光度グラフはComet for Windowsで作成したものです。

---------------------------------------------------------------------

Copyright(C) Seiichi Yoshida (comet@aerith.net). All rights reserved.